Tracking 25701 objects as of 4-Jul-2022
HD Live streaming from Space Station
objects crossing your sky now

FENGYUN 1C DEB

Track FENGYUN 1C DEB now!
10-day predictions


NORAD ID: 32243
Int'l Code: 1999-025CWR
Perigee: 706.4 km
Apogee: 1,169.8 km
Inclination: 98.3 °
Period: 103.6 minutes
Semi major axis: 7309 km
RCS: 0.0053 m2 (small)
Launch date: May 10, 1999
Source: People's Republic of China (PRC)
Launch site: Taiyaun Space Center, China (TSC)

Note: This is SATELLITE DEBRIS
aabbcc
Your satellite tracking list
Your tracking list is empty




NASA's NSSDC Master Catalog

Two Line Element Set (TLE):
1 32243U 99025CWR 22184.12086174  .00000750  00000-0  43081-3 0  9996
2 32243  98.3099 313.2732 0316984  56.7896 306.3233 13.89325624760238
Source of the keplerian elements: AFSPC